星链-11543 (STARLINK-11543)

导读

STARLINK-11543是美国太空探索技术公司(SpaceX)星链(Starlink)互联网星座的成员,于2025年2月11日由美国发射入轨。星链旨在为全球提供高速低延迟卫星互联网服务,该卫星是星链大规模组网部署中的一员,承担着太空组网、全球互联网覆盖的相关任务,助力实现全球无盲区网络接入的目标。

基本信息
目录编号:
62981
目录名称:
STARLINK-11543
国际标识:
2025-031A
轨道中心:
EARTH
卫星名称:
星链-11543
卫星全名:
星链-11543 (STARLINK-11543)
卫星状态:
在轨 (已飞行488 天)
发射日期:
2025-02-11 UTC
国别 :
美国 (US)
星等 :
--
轨道信息
数据来源 国际轨道数据
星历时间: 2026-06-13T12:12:07+0800
1天前
查看轨道信息
半长轴: 6734.456km
偏心率: 0.0001932
轨道倾角: 42.998°
近地点辐角 251.781°
升交点赤经 145.561°
平近点角 108.285°
近地点: 355.017km
远地点: 357.621km
周期: 91.667分钟
每日圈数: 15.709018
详细信息
固有亮度:
5
最大亮度:
2.5
卫星平台:
Starlink V1.0
覆盖范围:
全球
运营商:
太空探索技术公司
运营商所在国:
美国
制造商(研发单位):
太空探索技术公司
制造商所在国:
美国
使用方式:
暂无
卫星简介
Starlink 计划是 SpaceX 推出的全球卫星互联网项目,通过发射低轨道卫星,为全球尤其是偏远地区提供高速、低延迟的互联网服务。自 2019 年起,Starlink 已部署数千颗卫星,旨在缩小全球数字鸿沟,推动互联网普及。该项目还为军事、航空等行业提供通信支持,带来广泛经济效益。
2D轨道图
3D轨道图
轨道高度分析图
轨道倾角分析图
轨道综合分析图
查看轨道综合分析图